Starlink 3244

operational
NORAD ID: 49741 Int'l Des: 2021-115 Owner: SPXS Country: US Constellation: starlink
LEOCIRCULAR

Über Starlink 3244

Beschreibung wird geladen...

Live-Position

3D-Globus wird geladen...

Nächste Überflüge

Höhenverlauf

Altitude vs Time

uPlot chart will show altitude changes over time

Zweizeiliger Elementsatz

1 49741U 21115T 25258.14725721 .00000228 00000-0 32414-4 0 9996
2 49741 53.2174 217.1734 0001378 91.0084 269.1066 15.08837173209032
Epoch: 15. Sept. 2025 • Age: 17 hours

Aktueller Status

Höhe 557.9 km
Geschwindigkeit 7.58 km/s
Subsatellitenpunkt -49.99°S, 153.08°E
Startdatum 2. Dez. 2021
Alter 3.7 years
Typ internet

Technische Details

Klassifizierung Payload
Masse 290.00 kg
Trockenmasse 270.00 kg
Gesamtmasse 290.00 kg
Länge 0.20 m
Durchmesser 2.80 m
Spannweite 9.00 m
Form Box + pan
Hersteller SPXS
Bus-Typ Starlink
Phasenstatus In Orbit
Besitzer/Staat SPXS/US

Große Konstellationen

Loading constellations...